Regional Weather Roundup
Issued by NWS

Home | Current Version | Previous Version | Text Only | Print | Product List | Glossary Off
Versions: 1 2 3 4 5 6 7 8 9 10 11 12 13 14 15 16 17 18 19 20 21 22 23 24 25 26 27 28 29 30 31 32 33 34 35 36 37 38 39 40 41 42 43 44 45 46 47 48 49 50

000
ASUS43 KMPX 211201
RWRMN
WEATHER ROUNDUP FOR MINNESOTA
NATIONAL WEATHER SERVICE TWIN CITIES/CHANHASSEN MN
700 AM CDT THU SEP 21 2017


NOTE: "FAIR" INDICATES FEW OR NO CLOUDS BELOW 12,000 FEET WITH NO
SIGNIFICANT WEATHER AND/OR OBSTRUCTIONS TO VISIBILITY. N/A MEANS
CURRENT SKY AND/OR WEATHER CONDITIONS ARE NOT AVAILABLE.

MNZ060>063-068>070-211300-
   Twin Cities Metro

CITY           SKY/WX    TMP DP  RH WIND       PRES   REMARKS
TWIN CITIES    CLEAR     56  50  80 SE7       30.00R
6HR MIN TEMP:  53; 6HR MAX TEMP:  58;

ST PAUL        CLEAR     53  50  89 SE3       30.01R
CRYSTAL        CLEAR     47  43  86 CALM      29.98S
BLAINE         CLEAR     46  46 100 CALM      29.99S
LAKEVILLE      CLEAR     45  45 100 CALM      29.99S
EDEN PRAIRIE   CLEAR     53  50  89 E6        29.98S
6HR MIN TEMP:  50; 6HR MAX TEMP:  56;

SOUTH ST PAUL  CLEAR     54  51  91 CALM      30.00R
LAKE ELMO      FOG       45  45 100 CALM      30.02R VSB<1/4
$$
MNZ001>005-007-008-013>017-022>024-027-028-211300-
   Northwest Minnesota

CITY           SKY/WX    TMP DP  RH WIND       PRES   REMARKS
BEMIDJI        CLEAR     47  42  81 SE8       29.93S
HALLOCK        CLOUDY    54  46  76 S14       29.80S
ROSEAU         CLEAR     54  45  71 S10       29.86F
WARROAD        CLEAR     54  46  76 S8        29.89S
CROOKSTON      PTCLDY    57  46  67 S13       29.84R
FOSSTON        PTCLDY    54  45  71 SE10      29.88F
DETROIT LAKES  CLOUDY    54  46  76 SE8       29.90S
MOORHEAD       CLOUDY    55  48  76 S13       29.87R
PARK RAPIDS    CLEAR     50  44  80 SE9       29.94S
MAHNOMEN       FAIR      56  45  66 SE14G21   29.86F
$$
MNZ006-009>011-018-025>026-211300-
   North Central Minnesota

CITY           SKY/WX    TMP DP  RH WIND       PRES   REMARKS
BAUDETTE       CLOUDY    48  43  82 S7        29.92R
FLAG ISLAND    CLEAR     57  50  77 S14G22    29.88R
INTL FALLS     CLOUDY    40  38  93 S5        29.97R
6HR MIN TEMP:  40; 6HR MAX TEMP:  48;

WASKISH        PTCLDY    48  45  87 SE5       29.94R
BIG FORK       CLEAR     46  43  87 CALM      29.98S
LONGVILLE      CLEAR     45  45 100 SE3       29.97S
GRAND RAPIDS   CLEAR     41  40  96 S3        30.01S
CRANE LAKE     CLEAR     36  36 100 CALM      30.01R
ORR            CLEAR     45  41  87 SE5       29.97S
COOK           CLEAR     43  39  87 CALM      30.00S
WALKER         FAIR      52  45  76 S6        29.96R
$$
MNZ012-019>021-037-211300-
   Northeast Minnesota

CITY           SKY/WX    TMP DP  RH WIND       PRES   REMARKS
DULUTH         CLEAR     45  44  97 CALM      30.02R
6HR MIN TEMP:  42; 6HR MAX TEMP:  47;

ELY            CLEAR     36  36 100 CALM      30.02S
HIBBING        CLEAR     35  35 100 CALM      30.00F
EVELETH        CLEAR     37  35  90 CALM      30.03R
DULUTH HARBOR  CLEAR     50  46  87 CALM      30.03R
SILVER BAY     CLEAR     39  39 100 CALM      30.02S
GRAND MARAIS     N/A     46  45  96 NW6       30.04R
$$
MNZ029>031-032-039>041-046>048-054>057-064-211300-
   West Central Minnesota

CITY           SKY/WX    TMP DP  RH WIND       PRES   REMARKS
FERGUS FALLS   CLEAR     54  46  76 S10       29.91R
WHEATON        CLEAR     52  46  82 SE13      29.91S
MORRIS         CLEAR     50  46  87 S9        29.91S
ALEXANDRIA     CLEAR     53  46  77 SE12      29.94F
ELBOW LAKE     FAIR      51  47  86 S12       29.92R
WADENA         CLEAR     48  45  87 SE8       29.93F
GLENWOOD       CLEAR     50  46  87 SE8       29.94S
APPLETON       CLEAR     52  46  82 SE7       29.92S
BENSON         CLEAR     52  46  82 S6        29.95R
ORTONVILLE     CLEAR     50  46  87 NE9       29.90F
MADISON        CLEAR     52  52 100 SE8       29.91F
WILLMAR        FAIR      54  48  82 SE10      29.96R
$$
MNZ033>034-036-042>043-049>051-058-059-211300-
   Central Minnesota

CITY           SKY/WX    TMP DP  RH WIND       PRES   REMARKS
ST CLOUD       CLEAR     45  44  97 E5        29.98F
6HR MIN TEMP:  41; 6HR MAX TEMP:  50;

SAUK CENTRE    FAIR      50  46  85 E9        29.95F
PAYNESVILLE    CLEAR     54  47  76 E7        29.96S
AITKIN         CLEAR     37  36  93 CALM      29.98S
PINE RIVER     CLEAR     43  41  93 SE5       30.00S
BRAINERD       CLEAR     49  44  83 SE7       29.98F
LITTLE FALLS   CLEAR     45  39  81 CALM      29.98S
LITCHFIELD     CLEAR     52  50  93 SE8       29.97R
BUFFALO        CLEAR     48  45  88 CALM      30.00S
MAPLE LAKE     CLEAR     53  51  94 E3        29.99F
HUTCHINSON     PTCLDY    52  48  86 E7        29.98S
$$
MNZ037-044-045-052-053-211300-
   East Central Minnesota

CITY           SKY/WX    TMP DP  RH WIND       PRES   REMARKS
PRINCETON      CLEAR     43  43 100 CALM      30.00S FOG
MORA           CLEAR     37  37 100 CALM      30.02S FOG
RUSH CITY      CLEAR     41  40  97 CALM      30.01S
MOOSE LAKE     FOG       36  36 100 CALM      30.00S VSB 1/4
HINCKLEY       FAIR      37  37 100 CALM      30.01S
CLOQUET        CLEAR     41  37  87 CALM      30.02R
MCGREGOR       CLEAR     39  37  93 CALM      30.00S
$$
MNZ071>073-080-081-089-090-097-098-211300-
   Southwest Minnesota

CITY           SKY/WX    TMP DP  RH WIND       PRES   REMARKS
MONTEVIDEO     CLEAR     48  45  87 S5        29.93S
GRANITE FALLS  CLEAR     52  49  87 E6        29.94F
CANBY          CLEAR     50  47  90 E5        29.92S
MARSHALL       CLEAR     51  47  86 S9        29.92F
REDWOOD FALLS  CLEAR     49  45  86 MISG      29.94S
OLIVIA         CLEAR     54  48  82 SE8       29.94S
PIPESTONE      CLEAR     54  48  82 SE8       29.91S
WINDOM         CLEAR     54  46  76 SE6       29.95S
WORTHINGTON    CLEAR     52  48  86 E6        29.94F
JACKSON        PTCLDY    50  46  87 CALM      29.96S
TRACY          CLEAR     52  48  87 SE6       29.94S
SLAYTON        CLEAR     46  44  94 SE6       29.94F
$$
MNZ065>067-074>077-082>085-091>093-211300-
   South Central Minnesota

CITY           SKY/WX    TMP DP  RH WIND       PRES   REMARKS
MANKATO        CLEAR     57  50  77 E9        29.98S
NEW ULM        CLEAR     54  48  82 E8        29.95F
ST JAMES       CLEAR     52  46  82 E5        29.97R
FAIRMONT       CLEAR     52  48  86 E5        29.96S
GLENCOE        CLEAR     51  49  94 E6        29.97S
FARIBAULT      CLEAR     46  46 100 CALM      29.99S
OWATONNA       CLEAR     52  48  87 E5        29.98F
WASECA         CLEAR     52  46  82 E6        29.99S
ALBERT LEA     CLEAR     55  52  88 CALM      29.98S
$$
MNZ078>079-086>088-094>096-211300-
   Southeast Minnesota

CITY           SKY/WX    TMP DP  RH WIND       PRES   REMARKS
ROCHESTER      CLEAR     52  50  93 E8        30.00S
6HR MIN TEMP:  51; 6HR MAX TEMP:  57;

RED WING       CLEAR     48  46  93 CALM      29.99S
STANTON          N/A     47  46  96 CALM      29.98F FOG
DODGE CENTER   CLEAR     50  48  93 NE3       29.99S
WINONA         FOG       54  54 100 CALM      30.01S VSB 3/4
AUSTIN         CLEAR     54  48  82 E3        29.98S
PRESTON        CLEAR     53  51  90 NE3       30.01S
$$
ABBREVIATIONS USED IN REMARKS
   TC - TEMPERATURES IN CELSIUS
  WCI - WIND CHILL INDEX
   HX - HEAT INDEX
  VSB - VISIBILITY
$$




USA.gov is the U.S. government's official web portal to all federal, state and local government web resources and services.